Weather observations for the past three days for
Air Force Academy
Imperial (Metric)
Date Time (mdt) Wind (mph) Vis. (mi.) Weather Sky Cond. Temperature (ºF) Relative Humidity Wind Chill (°F) Heat Index (°F) Pressure Precipitation (in)
Air Dwpt 6 hour altimeter (in) sea level (mb) 1 hr 3 hr 6 hr
Max. Min.
15 00:55 S 7 10.00 Overcast OVC140 71.6 46 40% 30.32 1015.3
14 23:55 S 8 10.00 Mostly Cloudy BKN180 74.8 37.6 88.9 72.3 26% 30.28 1013.3
14 22:55 NE 5 10.00 Fair CLR 73 38.8 29% 30.29 1013.9
14 21:55 N 7 10.00 Overcast BKN110 OVC130 79.3 37.2 22% 78 30.29 1013.7
14 20:55 W 10 10.00 Mostly Cloudy BKN130 81.9 35.6 19% 80 30.27 1012.7
14 19:55 S 3 10.00 Mostly Cloudy BKN120 83.1 36.5 19% 81 30.25 1012.5
14 18:55 SE 9 10.00 A Few Clouds FEW130 FEW180 88 30.9 13% 84 30.24 1012.2
14 17:55 S 6 10.00 Mostly Cloudy BKN130 88.9 31.6 94.5 87.1 13% 85 30.24 1012.2
14 16:55 Calm 10.00 Fair CLR 91.8 27.5 10% 87 30.25 1013.1
14 15:55 Calm 10.00 A Few Clouds FEW140 91 27 10% 87 30.27 1014.4
14 14:55 E 16 10.00 Mostly Cloudy BKN140 BKN200 88.3 33.1 14% 85 30.3 1015.4
14 13:55 NW 23 G 29 10.00 Light Showers Rain and Breezy OVC120 87.8 32.7 14% 84 30.29 1015.1
14 12:55 NE 6 10.00 Partly Cloudy SCT150 SCT180 90.5 26.4 10% 86 30.28 1014.4
14 11:55 NE 13 10.00 Fair CLR 93.2 25.9 93.6 72.1 9% 89 30.3 1014.6
14 10:55 N 14 G 21 10.00 Fair CLR 91.6 27.3 10% 87 30.32 1015.3
14 09:55 N 15 G 20 10.00 Fair CLR 90.3 28.6 11% 86 30.32 1014.7
14 08:55 NW 6 10.00 Fair CLR 87.8 30.7 13% 84 30.33 1015.1
14 07:55 Calm 10.00 Fair CLR 81 34.9 19% 79 30.33 1015.3
14 06:55 N 6 10.00 A Few Clouds FEW170 76.5 33.6 21% 77 30.32 1015.0
14 05:55 SW 8 10.00 Fair CLR 74.3 32.9 74.3 58.1 22% 30.31 1014.6
14 04:55 N 9 10.00 Fair CLR 67.1 35.4 31% 30.31 1014.9
14 03:55 N 10 10.00 Fair CLR 58.5 35.4 42% 30.3 1015.1
14 02:55 N 10 10.00 Fair CLR 61.2 36 39% 30.3 1015.1
14 01:55 N 8 10.00 Fair CLR 62.2 34.2 35% 30.32 1015.6
14 00:55 N 10 10.00 Fair CLR 62.8 34 34% 30.34 1016.3
13 23:55 NW 3 10.00 Fair CLR 69.3 33.8 90.3 67.6 27% 30.34 1016.0 0.01
13 22:55 N 5 10.00 A Few Clouds FEW200 68.4 34 28% 30.34 1016.0
13 21:55 NE 6 10.00 Fair CLR 77.2 31.6 19% 77 30.33 1015.3
13 20:55 S 8 10.00 Fair CLR 80.1 32.7 18% 79 30.33 1015.1 0.01
13 19:55 SW 17 G 25 10.00 A Few Clouds FEW020 FEW100 82.2 34.5 18% 80 30.31 1015.2 0.01
13 18:55 SW 7 10.00 Overcast BKN140 OVC160 88.9 25.2 10% 85 30.3 1015.1
13 17:55 N 9 10.00 Fair CLR 90.1 20.8 95.7 90.1 8% 86 30.27 1014.1
13 16:55 N 13 10.00 Fair CLR 93.4 20.1 7% 89 30.28 1014.4
13 15:55 NE 17 G 22 10.00 Fair CLR 93.4 23.2 8% 89 30.28 1014.4
13 14:55 N 8 G 23 10.00 A Few Clouds FEW150 FEW190 92.7 19.6 7% 88 30.3 1015.1
13 13:55 N 16 G 24 10.00 A Few Clouds FEW170 FEW200 95.4 18 6% 90 30.29 1014.5
13 12:55 N 14 G 30 10.00 Fair CLR 93.7 20.3 7% 89 30.31 1015.2
13 11:55 N 22 G 29 10.00 Fair and Breezy CLR 93 19.8 93.7 60.1 7% 88 30.32 1015.6
13 10:55 N 18 10.00 Partly Cloudy SCT150 93.4 20.1 7% 89 30.31 1014.6
13 09:55 N 16 10.00 Mostly Cloudy BKN150 89.2 20.3 8% 85 30.3 1014.3
13 08:55 N 7 10.00 Fair CLR 88.7 22.6 9% 85 30.3 1014.3
13 07:55 N 3 10.00 Fair CLR 75.9 32 20% 76 30.3 1014.3
13 06:55 N 9 10.00 Fair CLR 65.3 29.5 26% 30.29 1014.5
13 05:55 N 10 10.00 Fair CLR 63 27.5 67.1 57.6 26% 30.28 1014.1
13 04:55 N 8 10.00 Fair CLR 60.6 28.9 30% 30.26 1013.4
13 03:55 N 10 10.00 Fair CLR 59.7 31.3 34% 30.24 1013.0
13 02:55 N 10 10.00 Fair CLR 61.5 32.2 33% 30.24 1012.7
13 01:55 N 12 10.00 Fair CLR 61.3 32 33% 30.24 1013.0
13 00:55 N 10 10.00 Fair CLR 64.2 32.2 30% 30.24 1012.7
12 23:55 N 6 10.00 Fair CLR 65.1 29.3 94.1 65.1 26% 30.24 1012.7
12 22:55 N 8 10.00 Partly Cloudy SCT150 71.6 29.7 21% 30.24 1012.5
12 21:55 NE 6 10.00 A Few Clouds FEW170 76.8 27.1 16% 76 30.24 1011.9
12 20:55 N 7 10.00 Fair CLR 76.5 23.7 14% 76 30.21 1011.4
12 19:55 NE 8 10.00 Fair CLR 89.1 16.9 7% 85 30.2 1010.5
12 18:55 NE 12 G 17 10.00 Fair CLR 91.9 15.4 6% 88 30.19 1011.3
12 17:55 N 17 G 24 10.00 Fair CLR 93.9 12.7 97.5 90.1 5% 89 30.18 1011.2
12 16:55 NE 5 G 25 10.00 Fair CLR 95.2 8.6 4% 90 30.17 1010.6
12 15:55 E 13 G 29 10.00 Fair CLR 96.6 9.5 4% 92 30.18 1010.9
12 14:55 NW 17 G 24 10.00 A Few Clouds FEW180 96.4 3.2 3% 91 30.19 1011.3
12 13:55 NE 7 10.00 Partly Cloudy FEW160 SCT210 94.5 13.1 5% 90 30.19 1011.3
12 12:55 E 12 10.00 Mostly Cloudy BKN160 91.9 11.3 5% 88 30.2 1011.3
12 11:55 N 6 10.00 Partly Cloudy SCT150 94.1 12.9 95 58.1 5% 89 30.22 1011.2
12 10:55 W 10 10.00 Partly Cloudy SCT140 90.9 18.3 7% 87 30.22 1011.2
12 09:55 N 10 G 20 10.00 Fair CLR 91.8 22.1 8% 87 30.23 1011.6
12 08:55 Calm 10.00 Fair CLR 85.5 32.5 15% 82 30.23 1011.6
12 07:55 NE 6 10.00 Fair CLR 78.8 34.3 20% 78 30.23 1011.8
12 06:55 Calm 10.00 Fair CLR 61.3 39.2 44% 30.24 1013.3
12 05:55 Calm 10.00 Fair CLR 58.3 38.1 73.2 54.5 47% 30.23 1013.2
12 04:55 N 7 10.00 Fair CLR 58.1 39 49% 30.23 1013.0
12 03:55 N 10 10.00 Fair CLR 57.4 36.7 46% 30.21 1012.5
12 02:55 N 9 10.00 Fair CLR 57.4 37.8 48% 30.21 1012.3
12 01:55 N 10 10.00 Fair CLR 59.2 36.1 42% 30.23 1013.0
Date Time (mdt) Wind (mph) Vis. (mi.) Weather Sky Cond. Air Dwpt Max. Min. Relative Humidity Wind Chill (°F) Heat Index (°F) altimeter (in) sea level (mb) 1 hr 3 hr 6 hr
6 hour
Temperature (ºF) Pressure Precipitation (in)